Wind_Speed
8 7 7 7 8 9 10 11 10 10 9 10 11 13 13 12 10 8 7 6 6 5 5 6 6 6 6 6 7 8 9 9 10 10 10 10 10 10 10 9 8 8 7 7 6 6 5 4 4
9 8 8 8 10 12 12 12 11 11 11 12 13 15 14 12 11 9 9 8 7 7 7 7 7 7 7 8 8 9 10 11 11 11 11 11 11 11 11 11 10 9 9 8 8 7 6 6 5
10 10 10 11 12 14 14 13 13 13 14 14 16 16 15 13 11 10 11 10 9 9 9 9 9 9 9 9 10 11 11 12 13 13 13 13 13 13 12 12 11 11 10 10 9 9 8 7 6
11 11 12 13 15 15 16 15 14 15 16 17 17 17 15 14 13 11 11 10 10 10 10 10 10 10 10 11 12 13 13 14 14 15 15 14 15 15 14 14 13 13 12 11 11 10 9 8 8
12 13 13 15 17 17 17 16 16 17 19 19 19 18 17 17 15 12 11 11 10 10 10 10 10 11 12 13 13 14 14 15 15 16 16 16 17 17 16 15 15 14 13 13 12 12 11 10 9
13 13 15 17 19 18 18 16 17 19 20 22 22 21 19 15 12 11 11 11 11 11 11 11 12 12 13 14 14 14 15 16 16 17 18 18 18 18 18 17 16 16 15 15 14 13 13 12 11
13 13 15 18 20 20 18 16 17 20 22 23 22 21 18 15 12 11 12 13 11 12 13 13 13 14 14 14 15 16 16 16 18 18 19 19 19 19 19 19 18 18 17 16 16 15 14 14 13
13 14 17 20 22 20 18 16 18 20 22 23 23 22 19 17 14 12 12 13 12 13 14 15 15 15 15 16 16 16 17 18 19 19 20 20 20 20 20 20 20 19 19 18 17 17 16 15 14
13 16 19 23 23 21 18 17 19 21 22 22 22 20 19 18 15 14 13 14 14 14 15 16 16 16 16 16 17 17 17 18 19 20 20 20 20 21 21 21 21 21 20 20 20 19 18 17 16
15 19 22 23 24 22 19 18 19 21 22 21 19 18 19 18 17 16 15 15 16 16 16 16 17 17 17 17 18 18 18 18 19 19 20 20 21 22 22 23 23 23 23 22 21 21 20 19 18
18 22 24 24 23 22 21 19 20 21 21 19 19 19 20 20 20 17 16 17 17 17 17 18 17 18 18 18 18 19 19 19 20 21 21 21 22 23 24 23 24 24 24 24 23 22 22 20 20
20 23 25 24 22 21 20 20 21 21 21 20 19 19 18 18 19 17 18 18 18 18 18 18 18 18 18 18 18 19 19 19 20 21 21 22 23 24 24 24 24 24 25 25 24 23 22 22 21
21 23 23 23 22 21 20 22 23 22 21 20 20 19 18 18 16 18 20 21 19 18 19 18 18 19 18 18 18 19 19 20 21 21 22 23 24 25 26 27 26 25 25 25 25 24 23 23 22
22 23 22 22 22 22 21 21 22 23 22 21 20 20 19 19 20 20 21 21 19 19 19 19 19 17 18 18 19 19 20 21 21 22 22 23 23 24 27 27 26 26 25 24 24 25 24 23 23
21 22 21 21 21 21 21 21 21 21 22 21 20 20 19 20 19 19 20 19 18 18 17 18 18 17 18 18 19 20 21 21 21 22 22 23 23 23 24 24 23 23 24 25 24 24 24 23 23
21 21 20 19 20 20 20 20 19 20 20 20 20 19 18 18 17 18 18 18 17 18 17 16 17 18 18 18 19 21 21 22 22 22 22 23 23 22 23 23 23 22 22 22 23 23 23 23 22
19 18 19 18 18 18 19 18 17 17 18 18 17 17 18 19 19 20 18 16 16 18 18 17 18 18 18 18 20 21 22 22 22 22 22 23 22 22 21 21 21 21 22 22 22 23 23 22 22
16 16 16 16 15 17 17 17 16 16 16 17 17 17 18 20 18 19 18 17 17 18 18 17 19 19 19 19 21 22 22 22 22 22 22 22 23 22 21 21 21 21 22 23 23 23 23 23 24
16 16 15 15 14 16 17 17 17 16 16 17 17 17 18 19 19 19 18 16 18 18 18 19 20 20 19 21 22 22 22 21 21 22 22 22 21 21 21 20 20 21 23 23 23 24 23 23 23
16 16 15 15 15 17 17 18 17 18 19 19 19 19 20 20 19 19 19 19 18 19 20 19 20 20 21 21 22 22 22 21 21 21 21 20 20 20 20 20 20 21 22 23 23 24 24 22 23
16 17 16 15 15 17 18 19 19 20 21 22 22 22 22 21 20 19 18 19 19 20 20 20 21 21 21 22 22 22 22 22 21 20 20 20 20 20 20 20 21 21 22 22 22 23 22 22 22
16 17 17 16 17 18 20 21 21 22 24 25 24 24 22 22 18 18 19 20 19 20 21 21 21 21 22 22 23 23 22 22 22 21 21 20 20 20 21 21 22 22 21 21 22 22 22 22 23
17 18 19 19 19 20 21 24 24 24 25 26 25 24 23 22 20 19 19 20 20 21 21 22 21 22 22 23 23 23 23 23 23 23 23 21 21 22 22 22 21 21 21 22 22 22 22 22 22
18 19 20 21 22 23 22 24 25 24 24 26 24 24 24 23 21 20 20 20 19 20 21 21 22 22 23 23 24 24 25 25 25 24 23 23 23 22 22 22 21 22 22 22 21 22 22 22 22
19 20 21 22 23 24 23 25 25 24 25 27 26 27 26 25 23 22 21 20 19 19 20 21 21 23 24 24 26 26 26 25 25 24 24 23 23 21 21 20 20 21 22 22 22 22 22 22 22
19 20 22 23 23 23 23 25 24 24 24 25 27 26 25 25 24 23 22 21 20 20 20 21 22 23 25 25 26 26 26 26 25 25 24 24 23 22 21 20 20 20 20 20 21 22 22 23 23
18 19 21 23 23 23 21 21 22 23 23 22 24 24 25 24 24 24 24 22 22 21 21 22 23 24 25 25 26 27 26 26 25 25 25 24 24 23 22 22 21 21 21 20 20 21 22 23 24
20 20 20 22 23 23 22 21 22 21 21 21 22 23 22 23 24 24 23 22 22 21 22 22 23 24 25 26 26 26 25 25 24 24 24 24 24 23 22 21 20 20 20 21 21 21 22 23 23
18 20 21 22 22 23 23 22 22 21 20 20 20 21 21 20 21 22 22 22 21 21 21 23 24 24 25 26 26 25 25 24 24 24 24 24 23 22 22 21 20 21 21 22 21 21 21 21 22
19 20 21 22 22 22 23 22 20 20 19 19 19 20 21 20 19 18 20 21 22 22 22 23 23 24 25 25 25 25 25 25 25 24 24 24 23 22 21 21 21 21 22 22 21 21 21 21 21
Wind_Direction
234 229 218 210 207 211 221 231 243 254 265 275 285 289 293 300 304 297 293 299 299 299 300 297 297 296 292 285 283 284 285 284 284 284 285 286 286 289 290 290 290 288 287 285 284 285 288 293 300
234 227 213 201 201 207 220 233 242 256 264 273 278 286 293 293 291 281 282 287 287 287 286 288 289 285 284 282 280 280 279 279 279 279 279 280 281 282 285 285 284 283 281 280 279 280 284 290 294
233 222 210 198 201 211 221 230 241 251 261 271 276 281 286 287 287 276 277 277 278 280 279 282 280 279 278 277 276 276 276 275 275 275 275 275 275 276 279 280 278 277 277 276 276 276 278 284 290
225 217 208 201 201 214 226 239 250 257 268 275 277 277 278 281 279 273 271 272 273 277 279 279 279 277 275 273 272 273 274 274 273 273 272 272 272 271 273 274 274 273 272 273 274 274 275 278 282
221 215 204 203 206 216 224 235 248 260 269 273 276 282 281 282 272 263 266 267 271 276 276 277 278 275 273 273 274 274 274 273 273 273 272 272 271 269 268 269 268 268 268 269 271 272 273 274 277
219 214 206 204 209 220 227 238 252 262 270 274 279 282 287 281 266 264 266 266 273 273 273 275 273 272 274 275 274 274 275 274 272 272 272 272 272 269 267 266 266 265 265 266 268 269 269 271 274
215 207 204 207 212 221 228 236 251 262 270 277 280 280 282 281 277 266 263 266 268 268 271 272 271 273 274 275 274 274 275 275 274 273 273 274 273 268 266 266 266 264 264 264 265 266 267 268 270
211 200 199 207 215 223 233 240 252 262 270 276 278 280 278 278 275 266 261 264 266 270 274 273 270 271 272 273 275 274 275 277 277 275 274 273 272 268 266 265 264 264 262 263 262 263 265 267 268
202 196 201 209 217 226 233 242 255 261 267 272 277 276 272 273 270 261 258 260 266 270 272 272 271 272 272 274 276 275 276 279 279 277 273 271 270 268 266 265 264 262 261 261 261 262 263 265 268
199 197 206 216 223 230 239 248 257 264 269 274 275 274 275 275 269 261 260 261 265 266 268 272 274 271 274 276 276 276 276 281 282 279 276 273 271 269 268 266 264 262 260 259 260 260 261 263 266
204 204 212 220 227 235 241 250 259 266 270 272 274 275 274 270 267 259 258 262 263 264 266 271 276 274 275 276 278 277 277 280 280 279 279 277 274 272 270 267 266 263 261 259 258 259 260 262 264
210 212 217 223 230 240 245 251 259 264 271 273 275 276 273 267 267 264 262 262 263 261 261 263 269 270 271 276 280 280 281 284 284 282 278 278 275 274 270 268 266 265 265 261 258 258 259 262 264
214 216 220 225 236 241 246 254 261 266 271 271 272 272 268 270 271 270 266 262 260 259 257 258 264 269 273 276 278 282 285 287 286 283 280 279 279 277 272 268 267 265 267 261 257 257 259 262 263
221 223 227 231 239 246 250 256 263 269 273 273 273 274 274 270 273 276 270 261 259 259 256 257 261 267 273 277 279 282 286 289 286 286 286 283 281 278 274 268 267 265 263 264 259 256 257 261 263
227 231 233 235 240 247 252 257 264 268 272 272 273 274 273 273 274 275 273 265 266 263 263 261 265 269 274 278 282 284 287 289 289 288 288 286 282 281 276 269 266 266 265 263 259 255 257 260 261
233 235 237 239 243 249 255 260 264 267 271 270 270 270 273 276 273 275 272 271 271 274 275 266 274 276 278 280 285 287 289 290 289 288 288 285 284 281 276 270 265 264 265 265 261 258 259 260 261
234 238 241 242 244 251 256 259 262 266 268 273 273 273 278 281 279 274 269 266 267 273 275 277 276 277 280 286 287 289 290 290 289 290 289 285 282 280 275 268 264 263 263 263 261 260 261 262 263
236 239 240 242 243 248 255 259 260 266 271 273 274 279 285 282 278 273 270 269 272 274 274 276 275 275 281 288 289 289 290 289 290 291 289 286 283 282 275 270 265 264 263 262 262 260 263 263 263
234 235 237 237 238 246 251 258 261 265 272 276 279 284 287 283 276 275 274 270 270 273 273 275 276 277 280 286 288 289 290 289 288 288 288 287 284 282 277 273 266 265 264 264 262 260 261 263 262
236 235 238 239 241 247 255 261 265 267 271 277 280 281 284 282 279 276 273 276 272 273 273 275 278 280 281 286 287 288 288 288 287 288 285 285 283 281 281 276 270 267 265 264 262 260 259 263 262
238 238 243 246 244 249 258 262 266 267 271 276 278 280 281 279 278 276 275 277 273 271 272 276 277 279 283 286 287 287 287 287 287 288 288 286 285 280 279 280 272 267 266 265 264 262 259 261 261
237 240 246 245 247 249 254 259 263 268 271 275 277 279 279 281 281 285 283 278 273 270 272 274 274 278 282 285 287 286 287 287 288 290 289 284 283 283 280 280 277 270 267 267 265 262 261 262 262
239 240 245 245 249 250 252 258 262 264 268 274 278 280 281 284 286 286 285 279 276 277 272 272 273 276 279 283 285 285 286 285 286 287 286 285 283 283 281 282 277 270 268 268 266 263 263 263 261
243 241 243 243 246 249 252 259 262 265 270 275 277 282 281 281 282 280 281 280 279 279 276 273 275 277 279 283 285 286 285 285 285 285 284 285 284 282 283 283 273 269 268 268 266 264 264 262 261
246 245 244 242 245 250 255 261 265 265 269 271 274 276 277 274 277 279 278 279 282 281 278 275 275 277 280 282 284 286 286 284 283 281 283 284 283 282 282 282 274 267 264 264 266 264 263 262 260
249 248 248 249 251 254 257 262 267 268 272 269 270 271 273 273 278 280 281 283 281 281 279 278 277 280 282 284 284 285 285 283 280 280 282 283 283 282 280 281 277 270 266 265 263 263 263 261 258
248 249 249 252 254 259 260 263 266 269 272 272 269 273 274 277 278 279 283 280 280 281 281 280 280 282 284 286 287 286 283 282 281 280 281 282 282 280 278 278 276 271 270 270 268 264 264 264 262
250 251 253 254 258 263 265 267 273 273 275 279 276 274 273 275 275 277 280 280 280 281 282 281 282 283 285 285 286 284 284 284 282 281 280 281 280 279 278 277 273 270 269 269 269 268 265 263 262
249 249 251 254 258 263 267 269 274 277 279 280 282 277 275 275 277 279 279 280 280 281 283 284 282 283 284 286 285 285 286 286 284 283 282 281 279 278 276 274 272 271 270 269 269 270 269 265 262
251 252 253 255 257 263 268 271 276 279 283 283 284 286 285 282 285 283 278 278 281 282 283 285 286 285 285 285 285 285 285 286 284 282 281 280 278 276 274 273 272 272 271 270 270 269 269 269 266
Height
5914 5915 5917 5919 5920 5919 5917 5917 5917 5918 5918 5919 5919 5919 5919 5920 5922 5923 5920 5919 5918 5918 5918 5918 5918 5918 5917 5917 5917 5917 5917 5916 5916 5916 5915 5915 5914 5914 5913 5912 5912 5911 5910 5909 5909 5908 5907 5907 5906
5912 5914 5916 5917 5918 5916 5916 5915 5916 5916 5917 5918 5918 5918 5919 5919 5919 5919 5918 5917 5917 5917 5917 5917 5917 5917 5916 5916 5916 5916 5916 5915 5915 5914 5914 5914 5913 5913 5912 5912 5911 5910 5910 5909 5908 5907 5907 5906 5906
5910 5912 5914 5915 5915 5915 5914 5914 5914 5915 5915 5916 5916 5917 5918 5918 5917 5917 5917 5916 5916 5916 5916 5916 5915 5915 5915 5915 5915 5914 5914 5914 5913 5913 5913 5912 5912 5912 5911 5911 5910 5909 5909 5908 5907 5906 5906 5905 5905
5908 5910 5912 5913 5913 5913 5912 5912 5912 5912 5913 5914 5914 5915 5915 5916 5916 5916 5915 5914 5914 5914 5914 5914 5914 5913 5913 5913 5913 5912 5912 5912 5912 5911 5911 5911 5910 5910 5909 5909 5908 5908 5907 5907 5906 5905 5905 5904 5904
5906 5908 5910 5910 5910 5910 5910 5910 5910 5910 5911 5911 5912 5913 5913 5914 5914 5914 5913 5912 5912 5912 5912 5912 5911 5911 5911 5911 5911 5910 5910 5910 5909 5909 5909 5908 5908 5908 5907 5907 5906 5906 5905 5905 5904 5904 5903 5903 5902
5904 5906 5907 5907 5908 5908 5908 5908 5908 5909 5909 5909 5910 5911 5911 5911 5911 5911 5911 5910 5910 5910 5910 5909 5909 5909 5909 5909 5908 5908 5908 5907 5907 5906 5906 5905 5905 5905 5905 5904 5904 5904 5903 5903 5902 5902 5901 5901 5900
5902 5904 5905 5905 5905 5905 5906 5906 5907 5906 5906 5907 5907 5908 5908 5909 5910 5909 5908 5908 5907 5907 5907 5907 5907 5906 5906 5906 5906 5905 5905 5904 5904 5903 5903 5902 5902 5902 5901 5901 5901 5901 5901 5900 5900 5900 5899 5899 5898
5899 5902 5902 5902 5901 5902 5903 5904 5905 5904 5904 5905 5905 5905 5905 5906 5906 5907 5906 5905 5905 5905 5905 5904 5904 5903 5903 5903 5902 5902 5902 5901 5900 5900 5899 5899 5898 5898 5898 5898 5898 5898 5898 5897 5897 5897 5896 5896 5896
5896 5900 5899 5898 5898 5898 5899 5901 5901 5901 5901 5902 5902 5902 5902 5902 5902 5903 5903 5903 5902 5902 5902 5901 5901 5900 5900 5899 5899 5898 5898 5897 5896 5896 5895 5894 5894 5894 5894 5894 5894 5894 5894 5894 5893 5893 5893 5893 5893
5894 5895 5895 5896 5895 5895 5895 5896 5897 5898 5898 5899 5899 5899 5899 5898 5899 5900 5900 5900 5899 5898 5898 5898 5897 5897 5897 5896 5895 5895 5894 5893 5892 5892 5891 5890 5890 5890 5889 5889 5889 5889 5889 5889 5889 5889 5889 5889 5889
5891 5892 5892 5892 5892 5892 5892 5893 5894 5894 5895 5896 5896 5896 5895 5895 5895 5896 5896 5896 5895 5895 5895 5895 5894 5894 5893 5892 5892 5891 5890 5889 5889 5888 5887 5886 5885 5885 5884 5884 5884 5884 5884 5884 5885 5885 5885 5885 5885
5888 5888 5888 5889 5889 5889 5889 5890 5891 5891 5892 5892 5893 5892 5892 5892 5891 5891 5892 5891 5890 5890 5890 5890 5891 5890 5889 5888 5888 5887 5886 5885 5884 5883 5882 5881 5880 5880 5879 5879 5879 5879 5879 5880 5880 5880 5881 5881 5881
5884 5884 5885 5885 5885 5886 5887 5887 5887 5887 5888 5888 5889 5888 5888 5887 5887 5887 5886 5886 5885 5885 5885 5885 5886 5886 5886 5885 5884 5883 5882 5881 5880 5879 5878 5876 5875 5874 5874 5874 5874 5874 5874 5874 5875 5876 5876 5876 5876
5881 5881 5882 5883 5883 5883 5884 5884 5884 5884 5884 5884 5884 5884 5884 5883 5883 5882 5879 5879 5879 5880 5880 5881 5881 5881 5882 5881 5880 5879 5878 5877 5875 5873 5872 5871 5870 5869 5868 5868 5868 5869 5869 5869 5869 5870 5871 5871 5871
5877 5878 5879 5880 5880 5880 5880 5881 5881 5880 5880 5880 5880 5879 5879 5878 5878 5877 5875 5874 5874 5874 5874 5876 5876 5876 5876 5876 5876 5875 5873 5872 5870 5869 5867 5866 5864 5863 5862 5862 5863 5863 5863 5864 5864 5865 5866 5866 5866
5874 5875 5876 5876 5877 5876 5878 5877 5877 5877 5876 5875 5875 5875 5874 5873 5872 5872 5871 5871 5871 5871 5870 5871 5872 5872 5871 5871 5870 5869 5868 5867 5865 5864 5862 5861 5859 5858 5857 5857 5857 5858 5858 5859 5859 5860 5861 5861 5861
5870 5871 5872 5873 5873 5873 5873 5873 5873 5873 5873 5871 5870 5870 5870 5870 5869 5869 5868 5868 5867 5867 5867 5867 5867 5868 5866 5866 5865 5864 5863 5861 5860 5858 5857 5855 5854 5853 5852 5852 5852 5852 5853 5854 5854 5855 5855 5856 5856
5867 5867 5868 5869 5869 5869 5869 5869 5869 5868 5868 5868 5867 5866 5866 5866 5865 5865 5864 5863 5864 5864 5864 5863 5863 5863 5861 5861 5860 5859 5858 5856 5855 5853 5851 5850 5848 5847 5846 5846 5846 5846 5847 5847 5848 5849 5850 5850 5850
5862 5863 5863 5864 5864 5865 5864 5864 5864 5864 5864 5864 5863 5863 5862 5862 5861 5861 5860 5859 5860 5860 5860 5859 5859 5857 5856 5856 5855 5854 5853 5852 5850 5848 5846 5844 5843 5842 5841 5840 5840 5840 5841 5841 5842 5843 5844 5844 5845
5858 5858 5859 5860 5860 5860 5860 5860 5860 5859 5859 5860 5859 5859 5859 5857 5857 5856 5856 5856 5856 5856 5855 5854 5854 5853 5852 5851 5850 5849 5848 5847 5846 5843 5841 5839 5838 5836 5836 5835 5835 5835 5836 5836 5836 5837 5838 5838 5838
5854 5855 5855 5856 5856 5856 5856 5856 5856 5855 5855 5855 5855 5855 5855 5854 5852 5852 5852 5852 5851 5851 5850 5850 5849 5848 5847 5846 5845 5844 5843 5841 5840 5839 5836 5835 5833 5831 5831 5830 5830 5830 5830 5830 5830 5831 5831 5832 5832
5850 5851 5851 5851 5851 5851 5852 5851 5852 5851 5850 5850 5850 5850 5850 5849 5848 5848 5847 5847 5846 5846 5845 5845 5844 5843 5843 5841 5840 5839 5837 5836 5835 5833 5832 5830 5828 5827 5826 5824 5824 5824 5824 5824 5824 5825 5825 5825 5826
5846 5846 5847 5847 5847 5847 5847 5847 5848 5847 5846 5846 5846 5845 5845 5844 5844 5843 5843 5842 5841 5840 5840 5839 5839 5838 5837 5836 5835 5833 5832 5830 5829 5828 5827 5825 5823 5822 5820 5818 5817 5817 5817 5818 5818 5818 5818 5819 5819
5841 5842 5842 5842 5843 5843 5844 5843 5843 5843 5842 5841 5840 5841 5840 5840 5839 5839 5838 5837 5836 5835 5834 5834 5833 5832 5831 5830 5829 5827 5826 5824 5823 5822 5820 5819 5817 5816 5814 5811 5810 5811 5811 5811 5811 5811 5812 5812 5813
5837 5838 5838 5838 5838 5838 5839 5838 5838 5838 5838 5836 5835 5835 5835 5834 5834 5834 5832 5831 5831 5830 5829 5828 5828 5827 5825 5824 5823 5821 5820 5818 5816 5815 5813 5812 5811 5809 5808 5806 5804 5804 5804 5804 5804 5804 5805 5805 5806
5833 5834 5834 5834 5834 5834 5834 5833 5834 5832 5832 5831 5829 5829 5829 5829 5828 5828 5827 5826 5826 5825 5824 5823 5822 5820 5819 5818 5816 5814 5813 5811 5810 5808 5807 5806 5804 5803 5801 5800 5799 5798 5798 5798 5798 5798 5798 5799 5799
5828 5828 5829 5829 5829 5829 5829 5829 5829 5828 5827 5825 5824 5824 5823 5823 5823 5822 5822 5821 5820 5818 5818 5817 5815 5814 5812 5811 5809 5807 5806 5804 5802 5801 5800 5798 5797 5796 5795 5794 5793 5792 5791 5791 5791 5791 5791 5791 5791
5824 5824 5824 5824 5824 5824 5824 5824 5824 5823 5822 5821 5819 5818 5818 5817 5816 5815 5815 5814 5813 5812 5811 5810 5809 5807 5806 5804 5802 5800 5798 5797 5795 5794 5792 5791 5790 5789 5787 5787 5786 5785 5785 5785 5784 5784 5783 5784 5784
5819 5819 5819 5819 5819 5819 5818 5821 5819 5817 5817 5815 5813 5812 5812 5811 5809 5808 5808 5807 5806 5805 5805 5804 5802 5800 5799 5797 5795 5793 5791 5790 5788 5787 5785 5784 5783 5782 5781 5780 5779 5779 5778 5778 5777 5777 5776 5776 5776
5814 5814 5814 5814 5814 5814 5813 5816 5813 5812 5811 5809 5808 5807 5806 5806 5804 5803 5802 5802 5800 5799 5798 5796 5795 5793 5791 5789 5788 5786 5784 5782 5781 5779 5778 5777 5776 5775 5775 5773 5773 5772 5771 5770 5770 5770 5769 5769 5769